Location: Bratsk-Energetik
(56.3300°N, 101.7600°E)
Time: 13:24:03
(UTC+08:00)

ISS - Pass Details

Date: 26 May 2017
Orbit: 401 x 408 km, 51.6° (Epoch: 27 June)

Event Time Altitude Azimuth Distance (km) Brightness Sun altitude
Rises 23:05:33 0° 233° (SW) 2,335 0.0 -8.1°
Reaches altitude 10° 23:07:50 10° 221° (SW) 1,474 -1.2 -8.3°
Maximum altitude 23:10:39 26° 162° (SSE) 840 -2.8 -8.4°
Drops below altitude 10° 23:13:29 10° 103° (ESE) 1,475 -1.4 -8.6°
Sets 23:15:46 0° 91° (E) 2,336 -0.2 -8.8°
